Gonets-D1 No. 24L

operational
NORAD ID: 27060 Int'l Des: 2001-058 Owner: GONETS Country: RU
LEOCIRCULARPOLAR

About Gonets-D1 No. 24L

Description loading...

Live Position

Loading 3D Globe...

Upcoming Passes

Altitude History

Altitude vs Time

uPlot chart will show altitude changes over time

Two-Line Element Set

1 27060U 01058F 26062.07242273 .00000042 00000-0 17180-3 0 9998
2 27060 82.5352 264.1791 0008254 181.3706 178.7365 12.63060580114438
Epoch: Mar 3, 2026 • Age: 15 hours

Current Status

Altitude 1432.7 km
Velocity 7.14 km/s
Sub-Earth Point -46.79°S, 127.49°W
Launch Date Dec 28, 2001
Age 24.1 years
Type other

Technical Details

Classification Payload
Mass 225.00 kg
Dry Mass 225.00 kg
Total Mass 225.00 kg
Length 1.60 m
Diameter 0.80 m
Span 7.00 m
Shape Cyl + Ant
Manufacturer NPOPMR
Bus Type Strela-3
Phase Status In Orbit
Owner/State GONETS/RU

Large Constellations

Loading constellations...